Home > Weather > Braga > Past weeks

Flag for Portugal Past Weather in Braga, Portugal — Yesterday and Last 2 Weeks

Now
58 °F

Cool.


Feels Like: 58 °F
Forecast: 47 / 75 °F
Wind: 1 mph from Northwest

Location: Porto / Pedras Rubras

Current Time: May 30, 2016 at 6:12:46 AM

Latest Report: May 30, 2016 at 4:00 AM


Visibility: N/A

Pressure: 30.14 "Hg

Humidity: 77%

Dew Point: 51 °F

Location of BragaLocation

Past Weather in Braga — Graph

°F

Braga Temperature Yesterday

Maximum temperature yesterday: 64 °F (at 1:00 PM)
Minimum temperature yesterday: 59 °F (at 5:00 AM)
Average temperature yesterday: 60 °F

High & Low Weather Summary for the Past Weeks

 TemperatureHumidityPressure
High73 °F (May 23, 1:00 PM)93% (May 20, 9:00 AM)30.29 "Hg (May 20, 9:00 AM)
Low50 °F (May 23, 2:00 AM)28% (May 23, 1:00 PM)29.84 "Hg (May 25, 3:00 AM)
Average60 °F76%30.06 "Hg
* Reported May 15 4:00 AM — May 30 4:00 AM, Braga, Weather by CustomWeather, © 2016

Note: Actual official high and low records may vary slightly from our data, if they occured in-between our weather recording intervals... More about our weather records

Advertising

Braga Weather History for the Previous 24 Hours

Scroll right to see more
 ConditionsComfort  
Time TempWeatherWind HumidityBarometerVisibility
4:00 AM
Mon, May 30
58 °FCool.1 mph77%30.14 "HgN/A
3:00 AM58 °FCool.2 mph79%30.14 "HgN/A
2:00 AM59 °FCool.2 mph76%30.14 "HgN/A
1:00 AM59 °FCool.1 mph75%30.15 "HgN/A
12:00 AM59 °FCool.1 mph74%30.16 "HgN/A
11:00 PM
Sun, May 29
59 °FCool.2 mph76%30.16 "HgN/A
10:00 PM59 °FCool.1 mph77%30.16 "HgN/A
9:00 PM60 °FCool.2 mph77%30.15 "HgN/A
8:00 PM60 °FCool.2 mph75%30.13 "HgN/A
7:00 PM60 °FCool.2 mph76%30.13 "HgN/A
6:00 PM61 °FCool.2 mph76%30.13 "HgN/A
1:00 PM64 °FMild.6 mph73%30.11 "HgN/A
12:00 PM63 °FMild.5 mph70%30.10 "HgN/A
11:00 AM63 °FMild.5 mph74%30.10 "HgN/A
10:00 AM62 °FCool.5 mph75%30.08 "HgN/A
9:00 AM60 °FCool.3 mph87%30.07 "HgN/A
8:00 AM60 °FCool.3 mph79%30.05 "HgN/A
7:00 AM59 °FCool.5 mph82%30.03 "HgN/A
6:00 AM59 °FCool.6 mph84%30.02 "HgN/A
Weather by CustomWeather, © 2016

See weather overviewHow to use our weather pages